Torna al catalogo

SL-8 R/B

AttivoLEO
NORAD 6271·ROCKET BODY·🇷🇺 Russia

Lanciato Nov 1, 1972 da Plesetsk Cosmodrome

Loading…

Prossimi Passaggi (prossime 24 ore)

TLE

AggiornatoSource: Space-Track

Epoca: Sep 14, 2026, 11:15 UTC

1 06271U 72087J   26257.46892771 -.00000086  00000-0 -56355-3 0  9999
2 06271  74.0377 259.0217 0080602 321.9817 206.3834 12.34558293427628

Traccia SL-8 R/B in tempo reale con AllMySat

Download on the App Store